{"data":{"norad_id":38070,"epoch":"2026-09-19T00:17:03.763968Z","epoch_age_seconds":146928,"freshness":"FRESH","line1":"1 38070U 12003A   26262.01184912 -.00000219  00000+0  00000+0 0  9999","line2":"2 38070   0.0144 154.0387 0000477 257.1680  39.3744  1.00272509 45087","mean_motion":1.00272509,"eccentricity":4.77e-5,"inclination_deg":0.0144,"raan_deg":154.0387,"arg_perigee_deg":257.168,"mean_anomaly_deg":39.3744,"bstar":0,"rev_number":4508,"period_min":1436.0865349445,"perigee_km":35784.380750897,"apogee_km":35788.403246963,"semimajor_km":42164.52899893,"source":"CELESTRAK","updated_at":"2026-09-20T09:00:35.172615Z"}}